ROMMA est une association bénévole à but non lucratif. Votre soutien est indispensable : ADHERER à ROMMA ou FAIRE un DON

Chindrieux - (73, Savoie)

Chautagne (260 m)   Longitude: 05°50' E   Latitude: 45°49' N Station partenaire n°74
 

Détail journalier du     <<     >>

Température Precipitation Humidité Pression Vent Dir Rafale Dir. rafale Ensol.
Heure (°C) (mm) (%) (hPa) (km/h) (km/h) (min)
01:00 13.305210063NNE10NNE0
02:00 12.005810062NE8NE0
03:00 11.306010062NE8NE0
04:00 11.105810063ENE11ENE0
05:00 12.205510062NNE6NNE0
06:00 12.605210062NNE10NNE0
07:00 13.405110055N19S10
08:00 11.706410053N13NNO0
09:00 12.306310053NO16NNO0
10:00 17.403910055SSE26SE0
11:00 19.5035100511SSE27SE50
12:00 21.303510058S19SO40
13:00 21.303510042SSO11SSO0
14:00 21.303510048N31SO0
15:00 21.3036100416SSO35SO0
16:00 21.0038100412S34SO0
17:00 20.8037100410S32SO0
18:00 20.6037100411S27SSE0
19:00 18.305110056O21S0
20:00 14.117210063ENE11ESE0
21:00 12.40.48310073S13SSE0
22:00 11.40.88710103ENE23OSO0
23:00 8.33.68610128S24ONO0
minuit 7.73.88910143S18O0

Graphique du 25-04-2019

 

Serveur OMMA